Лянторский

Россия / Ханты-Мансийский автономный округ - Югра     61°27′43″N   71°41′36″E
темп.,
°C
ветер,
м/с
пор.,
м/с
влажн.,
%
обл.,
%
осадки,
мм/ч
давл.,
гПа
погр.,
м
27 ноября, сб
сб2723:00−19юз379889 0.1 1015114
02:00−17ю3797100 0.0 1014156
05:00−13ююв41094100 0.1 1012284
08:00−11ююв51195100 1.1 1009432
11:00−8ю51295100 2.0 1007463
14:00−5ююз51295100 0.6 1006515
17:00−2зюз61293100 0.9 1007659
20:00−2зюз61293100 0.1 1007599
28 ноября, вс
вс2823:00−2зюз6139482 0.5 1008585
02:00−1зюз71495100 0.2 1010748
05:00−2зюз71392100 0.4 1011888
08:00−2зсз6128398 0.3 1015771
11:00−6сз379393 0.6 1019270
14:00−11с119899 0.1 102217
17:00−16вюв229993 0.1 102417
20:00−11юв3496100 0.1 102386
29 ноября, пн
пн2923:00−6ююв4996100 0.5 1020248
02:00−5ю41095100 0.2 1018370
05:00−6ююз51195100 0.3 1016456
08:00−5ююз51295100 0.4 1014508
11:00−4юз61294100 0.9 1013557
14:00−4юз61393100 0.1 1011557
17:00−4юз71494100 0.4 1010565
20:00−3зюз71392100 0.3 1010717
30 ноября, вт
вт3023:00−1зюз6139499 0.4 1011622
02:00−1зюз61294100 0.3 1011568
05:00−1зюз6129495 0.3 1012602
08:00−1з51091100 0.2 1013578
11:00−6с3497100 0.4 1015168
14:00−10ссв3596100 0.4 1017153
17:00−12св3695100 0.6 1018155
20:00−12в5996100 1.0 1017206
1 декабря, ср
ср123:00−11в71495100 4.4 1013311
02:00−6юв71496100 3.3 1008318
05:000ююз81594100 7.4 1003798
08:00−2ююз81695100 1.7 1001783
11:00−1юз71594100 3.3 1001746
14:000юз71494100 0.1 1002659
17:00+1юз61394100 0.1 1002636
20:000юз61393100 0.0 1003610